User: anonymous   Login
Location: Unspecified
(0.0000°N, 0.0000°E)
Time: 11:01:27
(UTC+00:00)
Language:

STARLINK-4410 - Orbit

View from above orbital plane
View from above orbital plane
View from above satellite
View from above satellite

Ground track
Ground track

The orbit is defined by the following mean orbital elements,

1 53204U          26145.66668980 +.00000000 +00000-0 +26904-2 0 00007
2 53204  97.6009 206.3584 0001844  61.4623 306.6600 15.22482334    09
Epoch (UTC): 25 May 2026 16:00:01
Eccentricity: 0.0001844
inclination: 97.6009°
perigee height: 497 km
apogee height: 500 km
right ascension of ascending node: 206.3584°
argument of perigee: 61.4623°
revolutions per day: 15.22482334
mean anomaly at epoch: 306.6600°

The dashed part of the orbit path shows where the satellite is in the earth's shadow,  

DLR